Simultaneous Nadir Overpasses (SNOs) Predictions

Prediction of SNOs between METOP-B and NOAA-19 Satellite Orbit:

Table of predicted SNOs for the next 14.0 days since TLE Epoch: 4/15/2023
Index Date (METOP-B) Time (METOP-B) Lat,Lon (METOP-B) SZA (METOP-B ) Date (NOAA-19) Time (NOAA-19) Lat,Lon (NOAA-19) SZA (NOAA-19 ) Distance(km) Time Diff (sec)
1 04/16/2023 14:51:58 -80.93, 171.69 107.62 04/16/2023 14:51:02 -80.93, 171.70 107.64 0.18 56
2 04/16/2023 15:42:39 80.93, -21.05 72.36 04/16/2023 15:41:59 80.93, -21.19 72.34 2.49 40
3 04/16/2023 16:33:20 -80.92, 146.21 107.66 04/16/2023 16:33:01 -80.93, 146.29 107.66 1.58 19
4 04/16/2023 17:24:00 80.94, -46.18 72.37 04/16/2023 17:23:57 80.93, -46.23 72.36 1.19 3
5 04/16/2023 18:14:41 -80.94, 121.09 107.66 04/16/2023 18:14:59 -80.93, 121.26 107.64 2.98 18
6 04/16/2023 19:05:22 80.93, -71.66 72.32 04/16/2023 19:05:56 80.93, -71.65 72.34 0.30 34
7 04/16/2023 19:56:03 -80.93, 95.60 107.70 04/16/2023 19:56:59 -80.93, 95.47 107.69 2.30 56
8 04/16/2023 20:46:44 80.92, -97.14 72.28 04/16/2023 20:47:55 80.93, -97.06 72.32 1.80 71
9 04/28/2023 01:22:51 80.93,-166.13 68.60 04/28/2023 01:21:46 80.93,-166.18 68.57 0.96 65
10 04/28/2023 02:13:32 -80.93, 1.22 111.42 04/28/2023 02:12:50 -80.93, 1.34 111.42 2.12 42
11 04/28/2023 03:04:13 80.92, 168.38 68.55 04/28/2023 03:03:45 80.93, 168.40 68.55 0.78 28
12 04/28/2023 03:54:53 -80.94, -23.91 111.41 04/28/2023 03:54:49 -80.93, -24.08 111.44 3.14 4
13 04/28/2023 04:45:34 80.93, 143.25 68.56 04/28/2023 04:45:43 80.93, 143.35 68.57 1.73 9
14 04/28/2023 05:36:15 -80.93, -49.41 111.45 04/28/2023 05:36:48 -80.93, -49.50 111.45 1.72 33
15 04/28/2023 06:26:56 80.92, 117.75 68.52 04/28/2023 06:27:42 80.93, 117.92 68.56 3.07 46



Historial Predications of SNOs between METOP-B and NOAA-19
